Dewpoint
13 17 15 13 12 12 12 13 13 14 18 17 14 15 13 10 12 12 14 13 13 11 11 11 10 10 9 9 7 7 8 8 9 9 8 8 10 10 9 8 9 10 10
15 14 15 15 15 17 15 15 16 16 19 16 14 12 15 11 12 13 15 14 12 12 11 11 10 10 10 9 7 7 8 9 9 10 9 9 9 9 8 8 9 9 10
17 16 18 17 17 17 16 16 18 18 19 18 16 15 15 12 13 14 15 13 12 11 11 11 11 11 9 8 7 8 9 9 9 9 9 9 9 9 9 9 9 10 10
16 17 18 18 18 18 18 19 18 19 18 18 17 15 15 13 13 14 14 13 12 11 11 11 11 10 8 5 9 8 9 8 9 9 8 9 8 9 8 8 8 9 9
16 18 18 19 19 19 19 19 18 18 19 17 17 16 15 14 14 14 13 12 11 12 11 11 10 8 5 7 8 8 7 8 9 9 9 8 8 8 8 8 8 9 9
17 18 19 19 19 19 19 19 18 18 17 18 16 16 15 14 13 12 10 11 11 12 11 11 11 7 6 6 8 5 5 9 10 9 8 8 7 7 7 8 9 9 9
18 19 19 20 20 19 18 19 18 18 17 17 16 16 15 14 12 10 6 2 8 11 11 11 9 7 8 8 3 4 6 9 9 8 8 8 7 7 8 10 10 9 9
19 19 20 18 15 15 17 17 18 18 17 17 16 15 15 13 12 7 0 3 7 11 11 10 8 9 8 4 3 4 7 9 9 9 8 8 8 8 9 10 10 10 10
19 20 14 13 14 13 13 15 16 17 17 15 15 15 14 13 10 2 2 6 11 11 10 8 7 7 6 3 2 4 5 5 6 8 7 7 8 8 9 10 10 10 10
19 10 10 7 4 6 10 13 15 15 13 14 13 12 13 13 9 3 5 8 9 9 7 5 5 3 3 -2 0 3 5 4 5 6 6 6 8 8 8 9 9 10 10
18 18 17 15 10 11 17 17 16 14 13 12 13 13 13 12 9 5 7 7 8 7 5 5 3 2 -7 -9 -2 2 2 3 4 5 4 3 6 8 8 8 8 8 9
17 17 17 17 17 16 17 16 14 15 14 13 13 13 12 12 9 8 9 9 8 6 4 3 -5 -11 -11 -10 -2 -2 -0 4 4 3 3 1 2 7 8 8 8 8 8
15 14 15 8 16 17 16 15 14 13 14 13 13 12 12 13 8 9 9 8 6 2 2 -4 -6 -7 -6 -3 -1 0 2 1 2 1 1 1 -1 -3 4 4 8 8 8
5 6 13 13 16 16 15 15 14 14 14 12 12 12 12 12 10 7 7 6 5 3 -3 1 -3 -4 -4 -4 -1 0 1 1 2 1 0 -0 -2 -1 -1 2 3 7 8
14 13 12 15 16 16 15 15 14 14 13 12 13 12 12 11 9 8 7 5 -0 -5 -8 -2 -3 -4 -4 -4 -3 -1 -1 -2 1 -0 -1 -2 -2 -2 -2 0 1 3 4
14 15 16 16 16 15 15 14 13 13 12 12 12 11 11 11 9 7 5 -1 -5 -9 -2 -3 -3 -3 -4 -4 -3 -2 -2 -1 -0 -1 -1 -2 -2 -3 -3 -3 -1 -1 1
5 1 1 0 7 11 14 14 13 13 12 11 11 10 9 8 8 6 1 -3 -5 -3 -3 -3 -3 -3 -3 -3 -3 -2 -2 -1 -1 -1 -1 -2 -3 -3 -4 -4 -3 -2 -2
7 2 2 12 13 13 13 13 12 12 11 11 10 9 9 8 5 1 -1 1 0 -2 -3 -3 -3 -3 -3 -2 -2 -2 -1 -1 -0 -1 -1 -1 -2 -3 -3 -3 -4 -3 -2
8 11 11 10 10 11 11 12 11 11 10 8 9 8 6 4 2 -1 1 1 -1 -2 -3 -4 -4 -4 -4 -3 -2 -1 -1 -1 -1 -1 -1 -2 -2 -1 -3 -3 -3 -3 -3
10 10 10 10 10 9 10 10 10 11 9 7 6 5 4 3 1 4 3 1 -1 -3 -4 -5 -6 -5 -4 -3 -2 -3 -3 -3 -2 -2 -2 -2 -2 -2 -3 -3 -3 -3 -2
9 9 9 10 9 10 9 9 11 11 8 7 6 5 4 5 4 4 2 1 -1 -2 -3 -4 -7 -6 -6 -5 -3 -4 -4 -4 -3 -2 -1 -2 -2 -2 -3 -3 -3 -3 -3
7 9 8 8 8 8 9 9 9 10 9 7 6 5 5 5 4 3 2 1 -1 -2 -3 -5 -6 -6 -5 -4 -4 -4 -4 -4 -2 -2 -1 -2 -3 -2 -3 -3 -3 -3 -4
7 7 7 7 8 8 8 8 9 10 9 7 6 5 5 5 3 3 1 0 -1 -2 -4 -6 -6 -5 -4 -4 -4 -7 -9 -13 -5 -2 -1 -2 -2 -2 -3 -3 -3 -3 -2
7 7 6 6 7 7 8 9 9 10 9 7 6 5 6 5 3 2 1 0 -2 -3 -5 -5 -4 -4 -4 -4 -6 -11 -13 -14 -15 -8 -3 -2 -2 -2 -3 -3 -3 -2 -3
6 6 6 7 7 8 9 9 9 9 8 7 6 6 6 3 2 2 1 -0 -2 -4 -5 -5 -4 -3 -5 -7 -8 -10 -11 -13 -14 -13 -4 -2 -2 -3 -3 -3 -3 -2 -2
8 8 8 7 8 8 9 9 9 9 9 8 7 6 4 2 2 2 1 -1 -3 -4 -4 -4 -3 -3 -4 -5 -6 -8 -11 -13 -14 -10 -3 -2 -2 -4 -3 -3 -3 -3 -2
Wind_Speed
42 36 35 36 37 36 36 38 35 32 30 28 25 26 25 24 19 14 10 10 10 10 10 11 14 16 18 21 22 22 25 28 34 39 41 43 46 46 51 45 38 33 32
40 39 37 36 35 32 34 34 35 33 30 26 25 25 27 22 17 11 9 8 9 10 11 12 14 16 20 21 21 25 27 29 33 41 41 46 47 55 53 45 38 35 31
34 36 36 34 35 34 34 33 29 29 27 25 26 23 25 23 14 10 9 9 9 10 11 13 15 17 22 22 25 22 24 28 33 38 44 46 55 53 51 45 40 37 31
32 31 30 31 31 29 28 26 25 29 29 18 24 21 24 20 14 9 9 9 9 10 12 13 16 18 22 25 20 25 25 33 33 36 46 50 57 54 46 46 46 36 36
32 30 27 23 22 20 23 23 22 25 25 23 22 16 16 15 10 10 9 9 9 11 12 14 16 21 22 19 24 24 33 30 34 40 46 52 55 51 48 48 48 43 33
30 27 23 21 18 20 20 20 21 21 22 26 15 15 15 9 12 15 12 8 8 10 13 16 19 20 18 25 22 25 26 27 33 37 45 49 49 47 46 44 41 39 30
25 21 19 17 22 20 18 20 18 22 23 19 17 14 10 9 14 16 13 14 11 10 13 15 18 18 19 21 26 25 23 23 23 31 44 45 43 40 36 30 26 12 13
22 20 22 21 19 17 17 16 18 19 20 17 16 14 13 12 14 13 13 13 14 12 13 16 17 16 19 23 26 25 22 22 24 26 39 48 39 32 25 21 16 12 11
23 23 22 19 17 14 13 16 16 18 20 20 15 12 12 11 14 13 11 11 9 12 14 15 16 16 21 26 25 24 23 24 25 20 34 46 43 27 22 17 19 18 18
22 20 18 13 8 10 12 16 19 23 22 15 16 14 11 12 13 11 10 8 9 12 13 13 18 20 24 27 23 23 23 26 25 25 34 43 47 28 25 21 18 19 15
18 16 14 13 11 9 12 15 18 17 16 16 13 12 11 13 10 11 11 8 8 10 11 11 13 21 24 20 19 19 24 25 23 22 32 34 43 45 30 26 25 26 21
14 14 13 9 10 15 18 15 13 11 9 14 13 13 11 13 14 11 11 10 11 13 9 9 17 19 18 15 17 20 19 18 17 20 27 30 34 40 43 37 30 32 29
18 15 12 13 12 14 13 16 14 13 10 11 12 11 14 11 11 11 10 8 9 11 9 16 15 15 16 14 17 20 17 17 17 18 21 26 27 31 33 40 37 36 35
11 9 9 10 14 15 17 17 18 12 16 14 15 13 12 11 7 7 3 3 8 9 13 10 14 14 15 16 13 13 14 15 16 17 18 21 23 25 27 28 34 40 41
10 10 11 12 13 18 16 16 14 15 17 14 13 12 12 13 13 11 10 5 5 10 8 7 8 9 10 11 12 13 14 16 15 17 20 23 23 22 24 21 23 26 36
12 10 8 9 14 13 15 17 16 17 18 16 11 11 12 13 14 10 6 4 6 7 6 6 7 8 9 10 11 13 14 17 16 15 18 19 20 23 22 23 23 26 28
11 9 12 11 14 15 15 17 16 15 13 15 16 13 11 10 12 8 2 3 8 9 5 5 6 7 9 10 10 11 13 14 16 15 16 19 20 20 23 22 23 23 23
3 5 8 10 8 12 11 11 10 12 12 15 12 10 9 11 11 6 5 10 7 7 6 5 6 7 7 9 10 10 12 13 13 15 15 15 17 20 19 20 22 19 17
8 5 7 6 5 7 7 9 9 12 13 12 15 16 16 14 10 7 6 7 2 3 4 5 6 6 7 8 9 10 11 12 13 13 13 15 15 14 18 19 17 21 18
7 11 9 5 8 9 10 11 11 11 13 11 15 17 20 15 9 6 6 4 2 2 2 4 5 5 7 8 8 10 10 11 12 12 13 15 15 16 17 16 17 15 17
5 6 10 10 8 11 11 9 8 12 17 13 14 15 16 12 10 8 4 3 2 2 3 4 3 5 7 8 8 9 9 9 10 11 12 13 13 14 14 15 16 16 15
5 6 5 7 8 8 9 8 9 14 15 14 16 18 15 11 10 9 5 3 3 3 3 4 4 5 7 8 9 8 8 8 10 11 11 12 12 12 13 13 14 15 17
5 6 6 6 5 7 7 8 10 11 13 16 17 16 16 11 9 11 7 4 3 3 3 4 5 5 7 7 8 8 7 8 8 9 10 11 11 11 11 11 13 13 14
5 5 5 5 5 5 8 7 10 13 15 17 17 14 16 17 16 10 7 5 4 4 4 5 6 6 7 7 7 9 10 10 9 7 10 10 10 11 10 10 10 12 12
6 6 5 5 2 7 6 8 11 16 17 20 19 19 17 16 13 10 7 6 5 5 5 5 5 6 6 7 9 10 11 11 10 9 8 8 9 8 9 9 9 10 12
4 4 2 4 5 9 11 11 11 14 16 20 16 16 19 17 13 9 7 7 6 6 5 5 5 6 4 8 8 9 10 11 11 9 13 9 8 8 8 8 9 8 10
Wind_Direction
229 224 229 234 237 239 236 239 244 245 237 244 254 270 266 268 277 289 277 261 256 272 270 289 297 309 314 315 315 312 308 308 307 306 305 306 307 305 315 312 305 300 295
226 226 229 231 236 235 241 239 241 243 238 242 244 261 258 258 271 266 260 249 259 260 272 286 302 307 309 318 315 313 310 312 310 309 309 309 310 316 321 315 308 306 297
219 226 223 226 231 235 241 243 237 239 235 236 237 255 260 259 267 264 252 252 254 261 275 291 301 311 312 312 312 315 314 314 311 312 312 311 318 320 322 318 312 306 297
215 218 221 224 227 235 237 236 238 233 239 233 227 250 230 254 266 245 240 249 250 269 279 296 307 314 306 319 318 318 319 316 319 317 317 319 320 324 320 315 314 307 300
209 211 216 217 219 221 227 230 237 237 236 232 235 217 227 252 247 229 234 246 260 272 289 298 308 301 332 310 320 311 319 321 324 325 321 324 324 322 322 318 309 307 302
206 205 203 201 203 212 219 220 229 235 234 229 227 225 233 235 240 243 239 241 263 284 294 301 306 322 306 307 303 311 324 334 326 329 335 326 321 324 321 315 311 294 289
192 191 188 187 197 208 212 217 220 223 227 239 216 215 221 206 231 248 251 257 269 277 287 297 307 309 315 304 316 324 332 326 328 343 348 342 332 333 330 330 325 306 279
178 179 183 192 197 199 202 206 211 220 223 209 204 203 197 206 234 245 248 257 274 286 290 299 304 314 309 315 321 326 330 332 325 349 349 356 341 346 350 343 343 330 310
172 182 184 181 175 176 188 196 202 196 190 196 192 199 202 212 237 236 246 264 284 289 294 299 307 310 303 319 320 325 329 333 336 350 342 1 351 352 3 345 359 352 341
171 172 170 164 174 191 192 198 198 194 187 185 200 197 197 214 232 229 246 265 284 287 301 317 309 308 313 317 318 325 325 333 338 352 334 5 5 11 25 28 20 2 343
159 162 161 166 172 181 174 186 189 182 187 179 187 186 207 209 227 233 252 270 275 283 303 317 307 301 311 318 319 322 326 331 342 350 337 1 9 26 25 36 41 35 16
150 145 143 156 173 171 185 189 176 182 198 176 185 188 195 217 221 240 259 275 289 298 318 310 314 323 327 335 334 325 328 339 348 345 340 357 7 16 26 32 41 53 47
144 147 171 164 197 180 177 181 181 186 196 193 212 208 198 207 236 240 258 281 296 314 309 331 340 347 352 354 334 349 346 348 356 349 351 352 355 6 15 20 33 48 50
143 142 160 173 185 182 188 185 181 199 207 209 212 205 213 204 219 262 285 345 338 348 327 336 352 353 353 351 347 343 342 358 2 356 356 355 354 8 9 13 14 31 46
129 137 158 170 181 175 184 187 197 193 205 204 204 217 216 191 201 206 188 207 285 317 346 358 344 345 350 348 348 350 350 5 5 4 2 8 6 11 9 26 19 17 32
114 121 143 161 187 200 207 212 210 211 226 214 197 188 197 200 224 236 229 277 333 7 31 3 352 356 354 352 354 354 356 6 7 7 8 13 8 8 17 16 40 28 30
154 178 185 227 230 224 202 216 211 217 218 210 220 221 227 228 227 214 195 34 33 45 16 1 360 3 358 355 358 2 359 6 8 10 10 14 22 16 12 23 25 36 29
140 211 184 198 174 193 193 197 195 197 191 208 210 217 208 195 187 164 106 54 35 18 5 4 10 10 3 1 360 7 5 4 11 13 14 16 17 17 21 19 25 30 33
97 132 166 169 177 192 194 196 208 199 176 174 175 172 171 176 167 141 114 79 67 20 359 357 15 12 11 11 8 11 9 7 11 16 18 17 18 28 22 23 22 21 33
166 178 154 189 193 196 199 209 221 190 173 169 163 172 175 174 151 131 107 100 78 66 25 26 1 17 16 18 15 13 9 6 14 15 16 15 18 15 22 25 22 25 27
181 161 153 173 191 198 188 192 200 185 167 173 174 181 175 160 157 136 154 132 106 60 35 66 19 21 22 14 18 19 8 8 11 15 18 15 16 18 17 19 24 21 34
194 177 172 190 182 202 203 196 192 182 179 175 169 187 183 160 153 147 162 135 106 94 60 58 48 37 29 27 20 22 4 8 12 12 16 15 10 21 18 20 23 24 23
195 200 197 199 202 177 210 211 198 188 181 174 172 171 173 168 150 173 152 158 126 99 79 75 63 46 45 31 25 15 14 11 14 6 19 16 12 23 21 22 22 27 25
192 195 200 193 199 189 198 195 188 174 176 177 174 173 176 182 179 170 152 159 142 123 97 83 76 72 58 46 32 22 23 21 22 35 53 14 12 21 22 25 25 27 27
203 210 221 209 208 195 199 192 193 176 169 171 172 186 183 175 160 156 173 160 149 135 119 101 79 59 41 36 28 23 23 26 29 36 73 34 11 26 23 24 33 27 34
168 196 197 192 234 226 197 178 161 156 169 177 188 171 173 159 148 178 171 165 151 143 128 111 98 92 58 20 27 25 25 28 31 46 53 35 27 22 50 30 36 38 38
Height
1508 1513 1516 1518 1522 1525 1528 1530 1532 1535 1537 1538 1540 1542 1540 1542 1540 1538 1538 1538 1537 1538 1539 1538 1537 1535 1533 1530 1526 1522 1517 1512 1503 1495 1491 1483 1476 1467 1457 1446 1440 1435 1431
1501 1506 1509 1512 1516 1519 1521 1523 1526 1528 1531 1532 1533 1530 1536 1539 1537 1534 1533 1534 1534 1534 1535 1534 1532 1531 1526 1523 1521 1518 1513 1507 1500 1489 1484 1474 1467 1456 1444 1436 1429 1426 1422
1497 1500 1504 1507 1510 1512 1515 1517 1520 1523 1527 1527 1529 1534 1535 1536 1533 1529 1530 1530 1532 1532 1533 1531 1528 1525 1523 1518 1513 1511 1508 1502 1496 1486 1475 1468 1455 1446 1434 1426 1420 1416 1413
1491 1494 1497 1500 1503 1506 1509 1512 1515 1517 1520 1521 1522 1525 1532 1530 1527 1525 1525 1526 1528 1531 1530 1528 1526 1524 1520 1514 1510 1507 1503 1496 1490 1482 1471 1457 1447 1435 1428 1418 1409 1407 1404
1484 1488 1491 1495 1498 1502 1504 1507 1510 1512 1514 1517 1518 1521 1523 1522 1522 1522 1524 1526 1528 1528 1528 1526 1524 1518 1514 1510 1507 1503 1498 1491 1485 1476 1466 1453 1438 1427 1421 1411 1403 1396 1395
1479 1482 1486 1489 1493 1496 1499 1502 1505 1508 1510 1513 1516 1516 1515 1517 1520 1521 1522 1525 1525 1524 1525 1525 1520 1516 1512 1508 1503 1500 1496 1488 1482 1475 1463 1448 1436 1425 1412 1403 1394 1389 1389
1474 1479 1482 1485 1488 1490 1494 1497 1501 1504 1507 1509 1510 1514 1517 1517 1517 1520 1519 1521 1520 1521 1520 1519 1516 1514 1508 1503 1498 1495 1490 1487 1482 1474 1462 1448 1432 1420 1407 1397 1390 1385 1386
1471 1475 1477 1478 1482 1486 1489 1491 1495 1497 1500 1504 1508 1509 1509 1511 1514 1515 1515 1516 1517 1517 1517 1515 1512 1509 1503 1499 1495 1491 1487 1483 1477 1471 1464 1449 1432 1419 1406 1398 1391 1388 1386
1467 1469 1471 1475 1478 1480 1482 1485 1488 1493 1496 1495 1503 1508 1511 1509 1511 1512 1513 1513 1514 1516 1513 1510 1507 1505 1500 1496 1492 1488 1484 1479 1474 1469 1462 1448 1431 1419 1407 1398 1393 1389 1386
1463 1465 1469 1472 1474 1476 1480 1483 1484 1484 1486 1499 1502 1502 1506 1510 1509 1510 1511 1511 1513 1514 1511 1509 1504 1500 1497 1492 1489 1485 1481 1476 1471 1464 1459 1448 1433 1418 1409 1401 1395 1391 1388
1464 1466 1469 1472 1474 1478 1483 1486 1489 1492 1491 1489 1498 1499 1506 1508 1506 1508 1509 1509 1510 1510 1508 1506 1500 1497 1494 1490 1487 1484 1480 1475 1469 1466 1459 1449 1438 1424 1415 1407 1400 1396 1390
1468 1469 1471 1476 1478 1472 1481 1488 1491 1497 1499 1498 1498 1498 1499 1507 1503 1505 1507 1505 1507 1507 1505 1501 1495 1493 1491 1488 1486 1483 1479 1474 1470 1467 1459 1452 1443 1433 1425 1416 1409 1401 1396
1462 1466 1473 1461 1479 1481 1480 1485 1490 1495 1499 1497 1502 1502 1501 1504 1500 1503 1504 1504 1504 1503 1502 1496 1492 1491 1489 1488 1486 1483 1479 1474 1471 1467 1462 1456 1448 1442 1434 1425 1420 1408 1401
1458 1462 1471 1470 1476 1478 1479 1480 1479 1488 1492 1495 1495 1499 1501 1502 1499 1500 1501 1502 1502 1502 1500 1496 1493 1493 1490 1488 1488 1485 1480 1475 1472 1469 1464 1459 1453 1446 1440 1433 1427 1418 1408
1463 1463 1468 1471 1476 1476 1478 1482 1485 1482 1489 1489 1491 1495 1499 1498 1499 1500 1501 1501 1501 1499 1498 1497 1495 1494 1492 1490 1488 1485 1480 1475 1472 1470 1466 1461 1455 1449 1446 1438 1436 1430 1422
1465 1469 1473 1475 1475 1478 1480 1480 1481 1483 1486 1486 1490 1493 1494 1496 1497 1498 1499 1500 1499 1498 1499 1497 1496 1494 1493 1491 1489 1485 1481 1476 1474 1471 1468 1463 1460 1455 1450 1446 1439 1436 1432
1460 1461 1462 1468 1472 1470 1471 1478 1478 1481 1485 1486 1490 1490 1493 1494 1496 1496 1497 1499 1498 1498 1500 1498 1497 1495 1493 1491 1489 1486 1483 1478 1476 1474 1470 1466 1462 1460 1455 1451 1446 1442 1440
1455 1461 1458 1466 1463 1469 1471 1474 1479 1479 1482 1485 1485 1489 1488 1492 1493 1495 1497 1497 1499 1500 1501 1499 1497 1495 1493 1491 1489 1485 1484 1481 1478 1475 1472 1469 1467 1464 1460 1456 1452 1449 1447
1455 1462 1464 1465 1465 1468 1471 1476 1479 1480 1482 1484 1480 1486 1487 1491 1493 1495 1496 1498 1500 1501 1502 1500 1497 1495 1493 1491 1488 1486 1484 1482 1478 1476 1474 1472 1468 1465 1464 1461 1459 1455 1452
1459 1461 1462 1463 1467 1470 1470 1475 1478 1479 1481 1481 1483 1485 1487 1491 1492 1496 1498 1500 1500 1501 1500 1499 1497 1495 1492 1490 1489 1488 1487 1485 1482 1480 1478 1475 1473 1470 1466 1465 1463 1459 1458
1462 1461 1459 1461 1465 1468 1469 1474 1476 1479 1480 1482 1485 1487 1488 1493 1494 1495 1499 1500 1501 1500 1499 1498 1498 1495 1494 1492 1489 1490 1489 1486 1483 1481 1479 1478 1475 1473 1472 1470 1467 1463 1460
1461 1461 1462 1462 1465 1468 1470 1470 1473 1475 1478 1480 1483 1485 1489 1492 1493 1497 1499 1500 1499 1499 1498 1497 1497 1495 1493 1492 1490 1489 1489 1486 1483 1482 1481 1480 1477 1476 1474 1472 1470 1467 1463
1460 1461 1462 1463 1464 1466 1469 1471 1473 1474 1477 1480 1482 1485 1488 1491 1494 1497 1498 1499 1499 1499 1498 1498 1497 1495 1494 1493 1491 1488 1486 1484 1482 1481 1481 1481 1479 1477 1476 1475 1473 1471 1469
1460 1461 1462 1462 1463 1465 1467 1469 1471 1473 1476 1479 1482 1485 1488 1489 1493 1495 1498 1499 1499 1499 1499 1497 1496 1495 1494 1494 1491 1489 1486 1484 1482 1481 1480 1482 1480 1479 1478 1477 1476 1474 1472
1458 1460 1461 1461 1463 1464 1468 1470 1471 1472 1475 1479 1482 1482 1485 1490 1493 1497 1498 1499 1500 1500 1499 1499 1498 1496 1494 1493 1491 1490 1487 1485 1483 1482 1480 1483 1482 1480 1480 1479 1478 1477 1475
1457 1459 1460 1461 1463 1464 1466 1469 1471 1472 1475 1477 1480 1483 1485 1490 1493 1497 1498 1499 1499 1499 1499 1499 1498 1498 1496 1493 1492 1491 1488 1486 1484 1483 1482 1483 1483 1480 1481 1481 1480 1479 1478